| time (UTC) | temp F | wind direction | speed MPH | gust MPH | rain 1hr in | rain 24hr in | rain mn in | humidity % | barometer mb |
| 20260510230100 | 84 | 289 | 4.0 | 8.0 | 0.00 | 0.08 | 0.08 | 78 | 1016.4 |
| 20260510224558 | 84 | 325 | 4.0 | 7.0 | 0.00 | 0.08 | 0.08 | 77 | 1016.4 |
| 20260510223137 | 85 | 306 | 3.0 | 9.0 | 0.00 | 0.08 | 0.08 | 77 | 1016.3 |
| 20260510221610 | 86 | 301 | 3.0 | 9.0 | 0.00 | 0.08 | 0.08 | 73 | 1016.4 |
| 20260510214559 | 87 | 309 | 4.0 | 9.0 | 0.00 | 0.08 | 0.08 | 73 | 1016.3 |
| 20260510213059 | 87 | 287 | 3.0 | 11.0 | 0.00 | 0.08 | 0.08 | 72 | 1016.4 |
| 20260510211554 | 88 | 255 | 6.0 | 12.0 | 0.00 | 0.08 | 0.08 | 69 | 1016.5 |
| 20260510210055 | 88 | 254 | 4.0 | 12.0 | 0.00 | 0.08 | 0.08 | 68 | 1016.5 |
| 20260510204558 | 89 | 267 | 4.0 | 13.0 | 0.00 | 0.08 | 0.08 | 67 | 1016.4 |
| 20260510203056 | 89 | 274 | 5.0 | 11.0 | 0.00 | 0.08 | 0.08 | 66 | 1016.4 |
| 20260510201554 | 89 | 269 | 4.0 | 11.0 | 0.00 | 0.08 | 0.08 | 66 | 1016.5 |
| 20260510200054 | 89 | 255 | 4.0 | 11.0 | 0.00 | 0.08 | 0.08 | 68 | 1016.2 |
| 20260510194558 | 89 | 247 | 5.0 | 11.0 | 0.00 | 0.08 | 0.08 | 66 | 1016.3 |
| 20260510193055 | 89 | 237 | 5.0 | 14.0 | 0.00 | 0.08 | 0.08 | 67 | 1016.5 |
| 20260510191554 | 90 | 232 | 5.0 | 15.0 | 0.00 | 0.08 | 0.08 | 66 | 1016.5 |
| 20260510190100 | 89 | 243 | 3.0 | 13.0 | 0.00 | 0.08 | 0.08 | 69 | 1016.4 |
| 20260510184613 | 90 | 269 | 6.0 | 10.0 | 0.00 | 0.08 | 0.08 | 68 | 1016.6 |
| 20260510183052 | 91 | 251 | 5.0 | 11.0 | 0.00 | 0.08 | 0.08 | 65 | 1016.8 |
| 20260510181559 | 91 | 238 | 2.0 | 11.0 | 0.00 | 0.08 | 0.08 | 65 | 1017.0 |
| 20260510180109 | 90 | 227 | 3.0 | 11.0 | 0.00 | 0.08 | 0.08 | 69 | 1017.1 |
| 20260510174553 | 90 | 248 | 3.0 | 10.0 | 0.00 | 0.08 | 0.08 | 69 | 1017.2 |
| 20260510173054 | 89 | 256 | 4.0 | 13.0 | 0.00 | 0.08 | 0.08 | 68 | 1017.3 |
| 20260510171618 | 90 | 252 | 3.0 | 9.0 | 0.00 | 0.08 | 0.08 | 69 | 1017.4 |
| 20260510170101 | 89 | 223 | 5.0 | 9.0 | 0.00 | 0.08 | 0.08 | 69 | 1017.6 |
| 20260510164554 | 90 | 238 | 2.0 | 11.0 | 0.00 | 0.08 | 0.08 | 69 | 1017.6 |
| 20260510163056 | 88 | 269 | 6.0 | 9.0 | 0.00 | 0.08 | 0.08 | 70 | 1017.6 |
| 20260510161553 | 88 | 246 | 3.0 | 10.0 | 0.00 | 0.08 | 0.08 | 71 | 1017.7 |
| 20260510160120 | 87 | 224 | 3.0 | 9.0 | 0.00 | 0.08 | 0.08 | 74 | 1017.7 |
| 20260510154622 | 89 | 241 | 3.0 | 7.0 | 0.00 | 0.08 | 0.08 | 73 | 1017.8 |
| 20260510153104 | 88 | 221 | 2.0 | 8.0 | 0.00 | 0.08 | 0.08 | 76 | 1017.6 |
| 20260510151553 | 88 | 219 | 3.0 | 7.0 | 0.00 | 0.08 | 0.08 | 74 | 1017.8 |
| 20260510150127 | 87 | 192 | 1.0 | 5.0 | 0.00 | 0.08 | 0.08 | 76 | 1017.8 |
| 20260510144616 | 85 | 235 | 1.0 | 7.0 | 0.00 | 0.08 | 0.08 | 79 | 1017.8 |
| 20260510143058 | 84 | 0 | 0.0 | 5.0 | 0.00 | 0.08 | 0.08 | 81 | 1017.8 |
| 20260510141555 | 83 | 241 | 1.0 | 3.0 | 0.00 | 0.08 | 0.08 | 83 | 1017.8 |
| 20260510140056 | 82 | 0 | 1.0 | 7.0 | 0.00 | 0.08 | 0.08 | 84 | 1017.3 |
| 20260510134601 | 80 | 205 | 0.0 | 4.0 | 0.00 | 0.08 | 0.08 | 86 | 1017.5 |
| 20260510133054 | 78 | 76 | 0.0 | 2.0 | 0.00 | 0.08 | 0.08 | 92 | 1017.4 |
| 20260510131551 | 76 | 0 | 0.0 | 4.0 | 0.00 | 0.08 | 0.08 | 94 | 1017.3 |
| 20260510130056 | 75 | 134 | 0.0 | 3.0 | 0.00 | 0.08 | 0.08 | 95 | 1017.2 |
| 20260510124600 | 75 | 0 | 0.0 | 2.0 | 0.00 | 0.08 | 0.08 | 95 | 1017.3 |
| 20260510123057 | 74 | 0 | 0.0 | 0.0 | 0.00 | 0.08 | 0.08 | 95 | 1017.2 |
| 20260510121600 | 73 | 0 | 0.0 | 0.0 | 0.00 | 0.08 | 0.08 | 95 | 1017.1 |
| 20260510120055 | 72 | 0 | 0.0 | 0.0 | 0.00 | 0.08 | 0.08 | 95 | 1017.0 |
| 20260510114557 | 71 | 0 | 0.0 | 0.0 | 0.00 | 0.08 | 0.08 | 94 | 1016.7 |
| 20260510113056 | 71 | 0 | 0.0 | 0.0 | 0.00 | 0.08 | 0.08 | 94 | 1016.4 |
| 20260510111553 | 70 | 0 | 0.0 | 0.0 | 0.00 | 0.08 | 0.08 | 94 | 1016.2 |
| 20260510110053 | 71 | 0 | 0.0 | 0.0 | 0.00 | 0.08 | 0.08 | 94 | 1016.1 |
| 20260510104608 | 70 | 0 | 0.0 | 0.0 | 0.00 | 0.08 | 0.08 | 94 | 1015.8 |
| 20260510103053 | 71 | 0 | 0.0 | 0.0 | 0.00 | 0.08 | 0.08 | 94 | 1015.4 |
| 20260510101603 | 71 | 0 | 0.0 | 0.0 | 0.00 | 0.08 | 0.08 | 93 | 1015.0 |
| 20260510100055 | 71 | 0 | 0.0 | 0.0 | 0.00 | 0.08 | 0.08 | 93 | 1015.2 |
| 20260510094614 | 71 | 0 | 0.0 | 1.0 | 0.00 | 0.08 | 0.08 | 93 | 1014.9 |
| 20260510093058 | 71 | 0 | 0.0 | 1.0 | 0.00 | 0.08 | 0.08 | 93 | 1015.0 |
| 20260510091601 | 71 | 0 | 0.0 | 1.0 | 0.00 | 0.08 | 0.08 | 93 | 1014.5 |
| 20260510090057 | 71 | 0 | 0.0 | 1.0 | 0.00 | 0.08 | 0.08 | 93 | 1014.5 |
| 20260510084601 | 72 | 0 | 0.0 | 1.0 | 0.00 | 0.08 | 0.08 | 93 | 1014.2 |
| 20260510083114 | 72 | 0 | 0.0 | 1.0 | 0.00 | 0.08 | 0.08 | 93 | 1014.2 |
| 20260510081613 | 72 | 0 | 0.0 | 0.0 | 0.00 | 0.08 | 0.08 | 93 | 1014.4 |
| 20260510080050 | 72 | 0 | 0.0 | 0.0 | 0.00 | 0.08 | 0.08 | 93 | 1014.5 |
| 20260510074553 | 72 | 0 | 0.0 | 0.0 | 0.00 | 0.08 | 0.08 | 93 | 1014.5 |
| 20260510073054 | 73 | 0 | 0.0 | 1.0 | 0.00 | 0.08 | 0.08 | 92 | 1014.6 |
| 20260510071552 | 73 | 0 | 0.0 | 1.0 | 0.00 | 0.08 | 0.08 | 92 | 1014.6 |
| 20260510070054 | 73 | 0 | 0.0 | 2.0 | 0.01 | 0.08 | 0.08 | 92 | 1014.8 |
| 20260510064551 | 73 | 0 | 0.0 | 3.0 | 0.03 | 0.08 | 0.08 | 92 | 1014.9 |
| 20260510063052 | 74 | 239 | 0.0 | 1.0 | 0.03 | 0.08 | 0.08 | 92 | 1015.1 |
| 20260510061601 | 74 | 0 | 0.0 | 0.0 | 0.08 | 0.08 | 0.08 | 91 | 1015.4 |
| 20260510060054 | 75 | 0 | 0.0 | 1.0 | 0.07 | 0.07 | 0.07 | 91 | 1015.7 |
| 20260510054553 | 75 | 0 | 0.0 | 3.0 | 0.05 | 0.05 | 0.05 | 90 | 1016.0 |
| 20260510053058 | 76 | 0 | 0.0 | 0.0 | 0.05 | 0.05 | 0.05 | 89 | 1016.0 |
| 20260510051553 | 76 | 0 | 0.0 | 0.0 | 0.00 | 0.00 | 0.00 | 88 | 1016.0 |
| 20260510050055 | 76 | 0 | 0.0 | 0.0 | 0.00 | 0.00 | 0.00 | 88 | 1016.1 |
| 20260510044558 | 77 | 0 | 0.0 | 0.0 | 0.00 | 0.00 | 0.00 | 87 | 1016.2 |
| 20260510043055 | 77 | 0 | 0.0 | 0.0 | 0.00 | 0.00 | 0.00 | 87 | 1016.2 |
| 20260510041553 | 77 | 0 | 0.0 | 0.0 | 0.00 | 0.00 | 0.00 | 87 | 1016.1 |
| 20260510034559 | 77 | 0 | 0.0 | 0.0 | 0.00 | 0.00 | 0.00 | 87 | 1015.9 |
| 20260510033054 | 77 | 0 | 0.0 | 0.0 | 0.00 | 0.00 | 0.00 | 87 | 1016.0 |
| 20260510031603 | 78 | 0 | 0.0 | 0.0 | 0.00 | 0.00 | 0.00 | 86 | 1016.0 |
| 20260510030058 | 79 | 0 | 0.0 | 0.0 | 0.00 | 0.00 | 0.00 | 86 | 1015.9 |
| 20260510024553 | 79 | 0 | 0.0 | 2.0 | 0.00 | 0.00 | 0.00 | 85 | 1015.7 |
| 20260510023054 | 80 | 274 | 1.0 | 4.0 | 0.00 | 0.00 | 0.00 | 85 | 1015.8 |
| 20260510021555 | 80 | 280 | 2.0 | 4.0 | 0.00 | 0.00 | 0.00 | 85 | 1015.7 |
| 20260510020056 | 80 | 0 | 1.0 | 3.0 | 0.00 | 0.00 | 0.00 | 85 | 1015.5 |
| 20260510014600 | 80 | 280 | 1.0 | 4.0 | 0.00 | 0.00 | 0.00 | 84 | 1015.3 |
| 20260510013109 | 80 | 297 | 1.0 | 4.0 | 0.00 | 0.00 | 0.00 | 84 | 1015.3 |
| 20260510011557 | 81 | 287 | 1.0 | 5.0 | 0.00 | 0.00 | 0.00 | 83 | 1015.1 |
| 20260510010055 | 81 | 292 | 2.0 | 8.0 | 0.00 | 0.00 | 0.00 | 82 | 1014.6 |
| 20260510004624 | 82 | 293 | 2.0 | 4.0 | 0.00 | 0.00 | 0.00 | 81 | 1014.7 |
| 20260510003054 | 82 | 271 | 2.0 | 8.0 | 0.00 | 0.00 | 0.00 | 81 | 1014.3 |
| 20260510001555 | 82 | 265 | 2.0 | 7.0 | 0.00 | 0.00 | 0.00 | 81 | 1014.2 |
| 20260510000054 | 83 | 246 | 4.0 | 9.0 | 0.00 | 0.00 | 0.00 | 79 | 1014.0 |
| 20260509234553 | 83 | 248 | 3.0 | 9.0 | 0.00 | 0.00 | 0.00 | 78 | 1013.8 |
| 20260509233058 | 84 | 274 | 3.0 | 9.0 | 0.00 | 0.00 | 0.00 | 74 | 1013.7 |
| 20260509231559 | 85 | 254 | 4.0 | 9.0 | 0.00 | 0.00 | 0.00 | 71 | 1013.7 |